Fort Polk, LA

5:11 PM CST on February 24, 2017 (GMT -0600)
Polk Army Air Field

Weather History for KPOE - October, 2012

Change the Weather History Date:

Monday, October 8, 2012

  Actual Average Record
Temperature  
Mean Temperature 58 °F -  
Max Temperature 66 °F 77 °F 91 °F (2010)
Min Temperature 50 °F 58 °F 44 °F (2000)
Degree Days  
Heating Degree Days 7    
Growing Degree Days 8 (Base 50)    
Moisture  
Dew Point 46 °F    
Average Humidity 70    
Maximum Humidity 89    
Minimum Humidity 48    
Precipitation  
Precipitation 0.00 in - - ()
Sea Level Pressure  
Sea Level Pressure 30.18 in    
Wind  
Wind Speed 6 mph (NNE)    
Max Wind Speed 10 mph    
Max Gust Speed 16 mph    
Visibility 10 miles    
Events      
Averages and records for this station are not official NWS values.
T = Trace of Precipitation, MM = Missing Value Source: NWS Daily Summary

Daily Weather History Graph

Daily Weather History Graph

Search for Another Location

Airport or City:

Trip Planner

Search our weather history database for the weather conditions in past years. The results will help you decide how hot, cold, wet, or windy it might be!

Date:

Astronomy

Oct. 08, 2012 Rise Set
Actual Time 7:11 AM CDT 6:48 PM CDT
Civil Twilight 6:46 AM CDT 7:12 PM CDT
Nautical Twilight 6:18 AM CDT 7:40 PM CDT
Astronomical Twilight 5:50 AM CDT 8:08 PM CDT
Moon 12:16 AM CDT (10/8) 2:14 PM CDT (10/8)
Length of Visible Light 12h 25m
Length of Day
11h 37m
Last Quarter, 46% of the Moon is Illuminated
Oct 8
Last Quarter
Oct 15
New
Oct 21
First Quarter
Oct 29
Full
Nov 6
Last Quarter

Hourly Weather History & Observations

Time (CDT) Temp. Dew Point Humidity Pressure Visibility Wind Dir Wind Speed Gust Speed Precip Events Conditions
12:55 AM 54.0 °F 46.0 °F 75% 30.17 in 10.0 mi Calm Calm - N/A   Overcast
1:55 AM 54.0 °F 45.0 °F 72% 30.17 in 10.0 mi NNE 4.6 mph - N/A   Overcast
2:55 AM 54.0 °F 46.0 °F 75% 30.18 in 10.0 mi North 8.1 mph - N/A   Overcast
3:55 AM 54.0 °F 46.9 °F 77% 30.17 in 10.0 mi NNW 6.9 mph - N/A   Overcast
4:55 AM 53.1 °F 46.9 °F 80% 30.16 in 10.0 mi NNE 6.9 mph - N/A   Overcast
5:55 AM 53.1 °F 46.0 °F 77% 30.18 in 10.0 mi NNE 6.9 mph - N/A   Overcast
6:55 AM 52.0 °F 46.0 °F 80% 30.20 in 10.0 mi North 8.1 mph - N/A   Overcast
7:14 AM 51.8 °F 44.6 °F 76% 30.19 in 10.0 mi North 9.2 mph - N/A   Overcast
7:44 AM 51.8 °F 44.6 °F 76% 30.20 in 10.0 mi NNE 6.9 mph - N/A   Overcast
7:55 AM 51.1 °F 44.1 °F 77% 30.22 in 10.0 mi NNE 5.8 mph - N/A   Overcast
8:55 AM 52.0 °F 45.0 °F 77% 30.24 in 10.0 mi NNE 8.1 mph - N/A   Overcast
9:55 AM 54.0 °F 44.1 °F 69% 30.25 in 10.0 mi NNE 10.4 mph - N/A   Mostly Cloudy
10:55 AM 59.0 °F 46.0 °F 62% 30.24 in 10.0 mi North 10.4 mph - N/A   Partly Cloudy
11:55 AM 61.0 °F 44.1 °F 54% 30.22 in 10.0 mi NNE 6.9 mph 16.1 mph N/A   Clear
12:55 PM 63.0 °F 45.0 °F 52% 30.20 in 10.0 mi Variable 6.9 mph - N/A   Mostly Cloudy
1:55 PM 64.9 °F 46.0 °F 50% 30.17 in 10.0 mi NNE 9.2 mph - N/A   Scattered Clouds
2:55 PM 66.0 °F 46.0 °F 48% 30.14 in 10.0 mi NE 10.4 mph - N/A   Partly Cloudy
3:55 PM 64.9 °F 46.0 °F 50% 30.13 in 10.0 mi NNE 6.9 mph - N/A   Clear
4:55 PM 64.9 °F 46.9 °F 52% 30.12 in 10.0 mi North 8.1 mph - N/A   Clear
5:55 PM 63.0 °F 46.9 °F 56% 30.13 in 10.0 mi NNE 8.1 mph - N/A   Clear
6:55 PM 59.0 °F 48.0 °F 67% 30.13 in 10.0 mi NNE 3.5 mph - N/A   Clear
7:55 PM 55.0 °F 48.0 °F 77% 30.14 in 10.0 mi NNE 4.6 mph - N/A   Clear
8:55 PM 53.1 °F 48.0 °F 83% 30.16 in 10.0 mi NNE 5.8 mph - N/A   Clear
9:55 PM 52.0 °F 46.9 °F 83% 30.16 in 10.0 mi NE 4.6 mph - N/A   Clear
10:55 PM 50.0 °F 46.9 °F 89% 30.16 in 10.0 mi NE 4.6 mph - N/A   Clear
11:55 PM 50.0 °F 46.9 °F 89% 30.15 in 10.0 mi ENE 3.5 mph - N/A   Clear